Regional Weather Roundup
Issued by NWS

Home | Current Version | Previous Version | Text Only | Print | Product List | Glossary Off
Versions: 1 2 3 4 5 6 7 8 9 10 11 12 13 14 15 16 17 18 19 20 21 22 23 24 25 26 27 28 29 30 31 32 33 34 35 36 37 38 39 40 41 42 43 44 45 46 47 48 49 50

000
ASUS43 KTOP 291659
RWRKS

WEATHER ROUNDUP FOR KANSAS
NATIONAL WEATHER SERVICE GOODLAND KS
1200 PM CDT FRI AUG 29 2014

NOTE:  "FAIR" INDICATES FEW OR NO CLOUDS BELOW 12,000 FEET WITH NO
SIGNIFICANT WEATHER AND/OR OBSTRUCTIONS TO VISIBILITY.

KSZ001>006-013>018-027>032-041>047-291800-
NORTHWEST KANSAS

CITY           SKY/WX    TMP DP  RH WIND       PRES   REMARKS
GOODLAND       SUNNY     79  52  38 NW13      29.99F
HAYS           MOSUNNY   75  61  60 W5        29.90F
HILL CITY      SUNNY     77  59  53 NW8       29.91S
RUSSELL        PTSUNNY   75  62  64 W8        29.87F
$$

KSZ061>065-074>080-084>089-291800-
SOUTHWEST KANSAS

CITY           SKY/WX    TMP DP  RH WIND       PRES   REMARKS
DODGE CITY     SUNNY     80  50  34 NW14      29.94S
ELKHART          N/A     78  53  41 NW3         N/A
GARDEN CITY    SUNNY     77  51  40 NW13      29.96S
GREAT BEND     MOSUNNY   79  61  53 W9        29.90R
LIBERAL        SUNNY     79  52  38 W9        30.00R
$$

KSZ066>073-081>083-090>101-291800-
SOUTHEAST KANSAS

CITY           SKY/WX    TMP DP  RH WIND       PRES   REMARKS
CHANUTE        MOSUNNY   77  67  71 S9        29.91S
COFFEYVILLE    MOSUNNY   78  69  73 SW13      29.91F
HUTCHINSON     SUNNY     80  65  59 S10       29.89S
NEWTON         SUNNY     77  64  65 S14       29.92F
PARSONS        MOSUNNY   79  68  69 SW10      29.92F
WICHITA INTL   MOSUNNY   81  63  54 S9        29.89F
WICHITA JABRA  SUNNY     80  63  55 S8        29.89F
WINFIELD       MOSUNNY   79  67  66 SW13      29.93F
$$

KSZ007>012-019>026-033>040-048>060-102>105-291800-
NORTHEAST KANSAS

CITY           SKY/WX    TMP DP  RH WIND       PRES   REMARKS
CONCORDIA      PTSUNNY   74  64  71 SW8       29.86F
EMPORIA        PTSUNNY   80  64  58 VRB5      29.87F
LAWRENCE       CLOUDY    77  68  73 S8        29.89R
MANHATTAN      MOSUNNY   80  65  59 S9        29.85F
OLATHE IND     LGT RAIN  70  68  93 S7        29.91R FOG
OLATHE EXE     RAIN      69  68  96 S5        29.90R FOG
SALINA         MOSUNNY   80  65  59 S7        29.86F
TOPEKA BILLARD CLOUDY    76  67  73 VRB6      29.87F
TOPEKA FORBES  CLOUDY    75  67  76 SW8       29.88S
$$



USA.gov is the U.S. government's official web portal to all federal, state and local government web resources and services.